Flag for Germany Weather past 2 weeks in Wertheim, Baden-Württemberg, Germany

Now
56 °F

Sprinkles. Overcast.


Feels Like: 55 °F
Forecast: 46 / 60 °F
Wind: 7 mph from West

Location: Wuerzburg

Current Time: Sep 5, 2015 at 5:12:28 PM

Latest Report: Sep 5, 2015 at 5:00 PM


Visibility: 19 mi

Pressure: 30.03 "Hg

Humidity: 83%

Dew point: 51 °F

Location of WertheimLocation

Historic Weather in Wertheim — Graph

°F

Wertheim temperature yesterday

Maximum temperature yesterday: 66 °F (at 5:00 PM)
Minimum temperature yesterday: 49 °F (at 7:00 AM)
Average temperature yesterday: 59 °F

Past Weeks' High & Low Weather Summary

 TemperatureHumidityPressure
High93 °F (Aug 30, 5:00 PM)99% (Aug 29, 3:00 AM)30.24 "Hg (Aug 29, 3:00 AM)
Low46 °F (Sep 5, 6:00 AM)25% (Aug 31, 4:00 PM)29.70 "Hg (Aug 24, 5:00 PM)
Average67 °F65%29.99 "Hg
* Reported Aug 21 4:00 PM — Sep 5 4:00 PM, Wertheim, Weather by CustomWeather, © 2015

Note: Actual official high and low records may vary slightly from our data, if they occured in-between our weather recording intervals... More about our weather records

Advertising

Wertheim weather history for previous 24 hours

 ConditionsComfort  
Time TempWeatherWind HumidityBarometerVisibility
4:00 PM
Sat, Sep 5
61 °FOvercast.8 mph61%30.02 "Hg37 mi
3:00 PM63 °FScattered clouds.6 mph60%30.02 "Hg37 mi
2:00 PM59 °FOvercast.7 mph68%30.03 "Hg37 mi
1:00 PM57 °FOvercast.6 mph71%30.04 "Hg37 mi
12:00 PM56 °FOvercast.6 mph71%30.04 "Hg37 mi
11:00 AM57 °FOvercast.6 mph70%30.03 "Hg34 mi
10:00 AM55 °FPartly sunny.6 mph71%30.03 "Hg31 mi
9:00 AM53 °FScattered clouds.2 mph73%30.03 "Hg31 mi
8:00 AM49 °FPassing clouds.2 mph81%30.03 "Hg31 mi
7:00 AM46 °FPassing clouds.2 mph86%30.03 "Hg31 mi
6:00 AM46 °FPassing clouds.2 mph89%30.02 "Hg31 mi
5:00 AM49 °FClear.1 mph79%30.01 "Hg40 mi
4:00 AM48 °FClear.2 mph79%30.01 "Hg43 mi
3:00 AM50 °FClear.1 mph74%30.01 "Hg43 mi
2:00 AM50 °FClear.1 mph73%30.02 "Hg43 mi
1:00 AM51 °FClear.1 mph69%30.02 "Hg43 mi
11:00 PM
Fri, Sep 4
53 °FClear.1 mph62%30.02 "Hg43 mi
10:00 PM55 °FPassing clouds.2 mph56%30.01 "Hg43 mi
9:00 PM57 °FPassing clouds.3 mph51%30.00 "Hg37 mi
8:00 PM60 °FPassing clouds.5 mph43%29.98 "Hg37 mi
7:00 PM64 °FPassing clouds.6 mph38%29.97 "Hg37 mi
6:00 PM64 °FScattered clouds.6 mph37%29.97 "Hg37 mi
5:00 PM66 °FScattered clouds.5 mph38%29.98 "Hg40 mi
Weather by CustomWeather, © 2015

See weather overviewHow to use our weather pages